User: anonymous
Location: Muenchen
(48.1800°N, 11.5800°E)
Time: 10:25:51
(UTC+02:00)
Language:

Sich 1 Rocket - Orbit

View from above orbital plane
View from above orbital plane
View from above satellite
View from above satellite

Ground track
Ground track

The orbit data is extracted from the following two-line orbital elements,

1 23659U 95046C   14204.51094752  .00000112  00000-0  12315-4 0  9645
2 23659 082.5286 208.4583 0027522 099.9599 017.3206 14.77780806 18013
Epoch (UTC): 23 July 2014 12:15:45
Eccentricity: 0.0027522
inclination: 82.5286°
perigee height: 617 km
apogee height: 655 km
right ascension of ascending node: 208.4583°
argument of perigee: 99.9599°
revolutions per day: 14.77780806
mean anomaly at epoch: 17.3206°
orbit number at epoch: 1801

The dashed part of the orbit path shows where the satellite is in the earth's shadow,  

DLR